This is the latest recevied weather packets stored in our database for station/object N0HOT. If no packets are shown the sender has not sent any weather packets the latest 10 day(s).
| Time | Temp. | Humidity | Pressure | Rain* | Wind** | Luminosity | Snow |
|---|---|---|---|---|---|---|---|
| 1777815101 | 15° C | 39% | 1007 hPa | 0 mm | - | 223 W/m² | - |
| 1777814798 | 15° C | 41% | 1007.3 hPa | 0 mm | - | 142 W/m² | - |
| 1777814495 | 14.44° C | 40% | 1007 hPa | 0 mm | - | 216 W/m² | - |
| 1777814192 | 14.44° C | 42% | 1007 hPa | 0 mm | - | 77 W/m² | - |
| 1777813889 | 13.89° C | 42% | 1007.3 hPa | 0 mm | - | 122 W/m² | - |
| 1777813586 | 13.89° C | 43% | 1007 hPa | 0 mm | - | 55 W/m² | - |
| 1777813284 | 13.89° C | 43% | 1007.3 hPa | 0 mm | - | 150 W/m² | - |
| 1777812981 | 13.33° C | 44% | 1007 hPa | 0 mm | - | 78 W/m² | - |
| 1777812679 | 13.33° C | 46% | 1007.7 hPa | 0 mm | - | 66 W/m² | - |
| 1777812375 | 13.33° C | 46% | 1007.3 hPa | 0 mm | - | 52 W/m² | - |
| 1777812073 | 13.89° C | 46% | 1007.3 hPa | 0 mm | - | 54 W/m² | - |
| 1777811771 | 13.89° C | 46% | 1007.3 hPa | 0 mm | - | 50 W/m² | - |
| 1777811467 | 13.89° C | 45% | 1007.3 hPa | 0 mm | - | 55 W/m² | - |
| 1777811163 | 13.89° C | 45% | 1007.3 hPa | 0 mm | - | 54 W/m² | - |
| 1777810861 | 13.89° C | 45% | 1007.3 hPa | 0 mm | - | 56 W/m² | - |
| 1777810558 | 13.89° C | 46% | 1007 hPa | 0 mm | - | 70 W/m² | - |
| 1777810255 | 13.89° C | 45% | 1007 hPa | 0 mm | - | 55 W/m² | - |
| 1777809950 | 13.89° C | 45% | 1007 hPa | 0 mm | - | 54 W/m² | - |
| 1777809649 | 13.89° C | 45% | 1007 hPa | 0 mm | - | 42 W/m² | - |
| 1777809346 | 13.89° C | 44% | 1006.6 hPa | 0 mm | - | 41 W/m² | - |
| 1777809044 | 13.89° C | 44% | 1006.6 hPa | 0 mm | - | 39 W/m² | - |
| 1777808741 | 13.33° C | 43% | 1006.3 hPa | 0 mm | - | 31 W/m² | - |
| 1777808437 | 13.33° C | 44% | 1006.6 hPa | 0 mm | - | 23 W/m² | - |
| 1777808135 | 13.33° C | 44% | 1007 hPa | 0 mm | - | 37 W/m² | - |
| 1777807833 | 12.78° C | 46% | 1007 hPa | 0 mm | - | 26 W/m² | - |
* Rain latest hour (hover to see other rain measurements)
** Current wind speed in m/s (hover to see current wind gust speed)